TimeEST,TemperatureF,Dew PointF,Humidity,Sea Level PressureIn,VisibilityMPH,Wind Direction,Wind SpeedMPH,Gust SpeedMPH,PrecipitationIn,Events,Conditions,WindDirDegrees,DateUTC
12:15 AM,10.4,6.8,85,30.30,4.0,Calm,Calm,-,N/A,,Clear,0,2013-02-07 05:15:00
12:35 AM,8.6,8.6,100,30.29,4.0,Calm,Calm,-,N/A,,Clear,0,2013-02-07 05:35:00
12:55 AM,8.6,6.8,92,30.30,5.0,Calm,Calm,-,N/A,,Clear,0,2013-02-07 05:55:00
1:15 AM,8.6,3.2,79,30.30,5.0,Calm,Calm,-,N/A,,Clear,0,2013-02-07 06:15:00
1:35 AM,8.6,6.8,92,30.30,5.0,Calm,Calm,-,N/A,,Clear,0,2013-02-07 06:35:00
1:55 AM,8.6,5.0,85,30.29,5.0,Calm,Calm,-,N/A,,Clear,0,2013-02-07 06:55:00
2:15 AM,8.6,5.0,85,30.28,5.0,Calm,Calm,-,N/A,,Clear,0,2013-02-07 07:15:00
2:35 AM,8.6,6.8,92,30.26,5.0,NNW,3.5,-,N/A,,Clear,330,2013-02-07 07:35:00
2:55 AM,8.6,6.8,92,30.26,8.0,Calm,Calm,-,N/A,,Clear,0,2013-02-07 07:55:00
3:15 AM,10.4,8.6,92,30.24,7.0,Calm,Calm,-,N/A,,Clear,0,2013-02-07 08:15:00
3:35 AM,10.4,8.6,92,30.24,7.0,Calm,Calm,-,N/A,,Clear,0,2013-02-07 08:35:00
3:55 AM,10.4,8.6,92,30.24,7.0,Calm,Calm,-,N/A,,Clear,0,2013-02-07 08:55:00
4:15 AM,12.2,10.4,92,30.25,7.0,Calm,Calm,-,N/A,,Clear,0,2013-02-07 09:15:00
4:35 AM,12.2,10.4,92,30.27,7.0,Calm,Calm,-,N/A,,Clear,0,2013-02-07 09:35:00
4:55 AM,12.2,10.4,92,30.28,7.0,Calm,Calm,-,N/A,,Clear,0,2013-02-07 09:55:00
5:15 AM,12.2,12.2,100,30.28,7.0,Calm,Calm,-,N/A,,Clear,0,2013-02-07 10:15:00
5:35 AM,12.2,10.4,92,30.29,7.0,Calm,Calm,-,N/A,,Clear,0,2013-02-07 10:35:00
5:55 AM,12.2,10.4,92,30.29,7.0,Calm,Calm,-,N/A,,Clear,0,2013-02-07 10:55:00
6:15 AM,14.0,12.2,93,30.29,7.0,East,3.5,-,N/A,,Mostly Cloudy,80,2013-02-07 11:15:00
6:35 AM,15.8,12.2,86,30.29,7.0,East,3.5,-,N/A,,Overcast,90,2013-02-07 11:35:00
6:55 AM,15.8,14.0,93,30.28,6.0,Calm,Calm,-,N/A,,Overcast,0,2013-02-07 11:55:00
7:15 AM,15.8,15.8,100,30.28,7.0,Calm,Calm,-,N/A,,Overcast,0,2013-02-07 12:15:00
7:35 AM,17.6,15.8,93,30.28,5.0,Calm,Calm,-,N/A,,Overcast,0,2013-02-07 12:35:00
7:55 AM,17.6,17.6,100,30.28,4.0,Calm,Calm,-,N/A,,Overcast,0,2013-02-07 12:55:00
8:15 AM,19.4,17.6,93,30.27,5.0,Calm,Calm,-,N/A,,Mostly Cloudy,0,2013-02-07 13:15:00
8:35 AM,21.2,19.4,93,30.28,5.0,Calm,Calm,-,N/A,,Overcast,0,2013-02-07 13:35:00
8:55 AM,21.2,19.4,93,30.28,7.0,Calm,Calm,-,N/A,,Overcast,0,2013-02-07 13:55:00
9:15 AM,23.0,21.2,93,30.27,7.0,East,3.5,-,N/A,,Overcast,80,2013-02-07 14:15:00
9:35 AM,24.8,21.2,86,30.26,7.0,Calm,Calm,-,N/A,,Overcast,0,2013-02-07 14:35:00
9:55 AM,24.8,21.2,86,30.25,8.0,East,4.6,-,N/A,,Mostly Cloudy,80,2013-02-07 14:55:00
10:15 AM,26.6,21.2,80,30.24,10.0,ENE,4.6,-,N/A,,Partly Cloudy,70,2013-02-07 15:15:00
10:35 AM,28.4,21.2,74,30.25,10.0,East,4.6,-,N/A,,Partly Cloudy,80,2013-02-07 15:35:00
10:55 AM,28.4,21.2,74,30.25,10.0,ENE,3.5,-,N/A,,Mostly Cloudy,60,2013-02-07 15:55:00
11:15 AM,30.2,23.0,75,30.24,10.0,Calm,Calm,-,N/A,,Mostly Cloudy,0,2013-02-07 16:15:00
11:35 AM,32.0,23.0,69,30.24,10.0,Calm,Calm,-,N/A,,Mostly Cloudy,0,2013-02-07 16:35:00
11:55 AM,33.8,24.8,70,30.23,10.0,East,3.5,-,N/A,,Mostly Cloudy,100,2013-02-07 16:55:00
12:15 PM,33.8,24.8,70,30.21,10.0,East,6.9,-,N/A,,Partly Cloudy,80,2013-02-07 17:15:00
12:35 PM,35.6,24.8,65,30.21,10.0,East,5.8,-,N/A,,Scattered Clouds,90,2013-02-07 17:35:00
12:55 PM,35.6,24.8,65,30.19,10.0,East,8.1,-,N/A,,Overcast,100,2013-02-07 17:55:00
1:15 PM,35.6,26.6,70,30.17,10.0,ENE,3.5,-,N/A,,Mostly Cloudy,70,2013-02-07 18:15:00
1:35 PM,35.6,26.6,70,30.16,10.0,East,6.9,-,N/A,,Partly Cloudy,90,2013-02-07 18:35:00
1:55 PM,37.4,24.8,60,30.15,10.0,East,5.8,-,N/A,,Partly Cloudy,90,2013-02-07 18:55:00
2:15 PM,37.4,26.6,65,30.14,10.0,East,4.6,-,N/A,,Scattered Clouds,80,2013-02-07 19:15:00
2:35 PM,39.2,26.6,61,30.13,10.0,East,5.8,-,N/A,,Clear,100,2013-02-07 19:35:00
2:55 PM,39.2,26.6,61,30.12,10.0,East,6.9,-,N/A,,Clear,100,2013-02-07 19:55:00
3:15 PM,41.0,26.6,57,30.12,10.0,East,4.6,-,N/A,,Clear,100,2013-02-07 20:15:00
3:35 PM,41.0,26.6,57,30.11,10.0,East,6.9,-,N/A,,Clear,100,2013-02-07 20:35:00
3:55 PM,42.8,26.6,53,30.11,10.0,East,9.2,-,N/A,,Clear,80,2013-02-07 20:55:00
4:15 PM,42.8,26.6,53,30.10,10.0,East,9.2,-,N/A,,Mostly Cloudy,100,2013-02-07 21:15:00
4:35 PM,41.0,26.6,57,30.10,10.0,East,6.9,-,N/A,,Overcast,90,2013-02-07 21:35:00
4:55 PM,41.0,26.6,57,30.09,10.0,East,9.2,-,N/A,,Overcast,90,2013-02-07 21:55:00
5:15 PM,39.2,26.6,61,30.08,10.0,East,6.9,-,N/A,,Overcast,90,2013-02-07 22:15:00
5:35 PM,39.2,26.6,61,30.08,10.0,East,5.8,-,N/A,,Overcast,100,2013-02-07 22:35:00
5:55 PM,39.2,26.6,61,30.08,10.0,East,8.1,-,N/A,,Scattered Clouds,90,2013-02-07 22:55:00
6:15 PM,39.2,26.6,61,30.08,10.0,East,5.8,-,N/A,,Clear,100,2013-02-07 23:15:00
6:35 PM,39.2,26.6,61,30.08,10.0,East,4.6,-,N/A,,Mostly Cloudy,100,2013-02-07 23:35:00
6:55 PM,37.4,26.6,65,30.07,10.0,East,6.9,-,N/A,,Overcast,100,2013-02-07 23:55:00
7:15 PM,37.4,26.6,65,30.07,10.0,East,6.9,-,N/A,,Mostly Cloudy,100,2013-02-08 00:15:00
7:35 PM,37.4,26.6,65,30.06,10.0,East,8.1,-,N/A,,Scattered Clouds,100,2013-02-08 00:35:00
7:55 PM,37.4,26.6,65,30.05,10.0,ESE,3.5,-,N/A,,Partly Cloudy,110,2013-02-08 00:55:00
8:15 PM,37.4,26.6,65,30.04,10.0,SE,5.8,-,N/A,,Clear,130,2013-02-08 01:15:00
8:35 PM,35.6,26.6,70,30.03,10.0,SE,6.9,-,N/A,,Clear,140,2013-02-08 01:35:00
8:55 PM,35.6,26.6,70,30.03,10.0,SE,6.9,-,N/A,,Clear,130,2013-02-08 01:55:00
9:15 PM,35.6,26.6,70,30.03,10.0,SE,6.9,-,N/A,,Clear,130,2013-02-08 02:15:00
9:35 PM,35.6,26.6,70,30.02,10.0,SE,4.6,-,N/A,,Clear,130,2013-02-08 02:35:00
9:55 PM,35.6,26.6,70,30.01,10.0,SE,6.9,-,N/A,,Clear,130,2013-02-08 02:55:00
10:15 PM,35.6,26.6,70,30.01,10.0,SSE,4.6,-,N/A,,Clear,150,2013-02-08 03:15:00
10:35 PM,35.6,26.6,70,30.00,10.0,SE,3.5,-,N/A,,Clear,140,2013-02-08 03:35:00
10:55 PM,35.6,26.6,70,30.00,10.0,SE,3.5,-,N/A,,Clear,140,2013-02-08 03:55:00
11:15 PM,35.6,26.6,70,29.99,10.0,SE,4.6,-,N/A,,Clear,140,2013-02-08 04:15:00
11:35 PM,35.6,28.4,75,29.98,10.0,SSE,3.5,-,N/A,,Clear,150,2013-02-08 04:35:00
11:55 PM,33.8,26.6,75,29.97,10.0,Calm,Calm,-,N/A,,Clear,0,2013-02-08 04:55:00